Weather in Auce

Latvia     56°27′40″N   22°54′18″E
temp.,
°C
wind,
m/s
gust,
m/s
humid.,
%
clouds,
%
prec.,
mm/h
press.,
hPa
HPBL,
m
24 july, sat
sat2400:00+12nnw25840 0.0 101697
03:00+10nnw24920 0.0 101778
06:00+10nnw249323 0.0 101774
09:00+16n23678 0.0 1017598
12:00+21nne224793 0.0 10171321
15:00+25nw11374 0.0 10161782
18:00+24nw123535 0.0 10162005
21:00+17ne37678 0.0 1017188
25 july, sun
sun2500:00+13ne23780 0.0 101841
03:00+12ne11854 0.0 101810
06:00+11e11862 0.0 101910
09:00+18e22590 0.0 1019316
12:00+23se22440 0.0 10191164
15:00+25sse22370 0.0 10181682
18:00+25sse22390 0.0 10181701
21:00+20sse22645 0.0 101817
26 july, mon
mon2600:00+16e117513 0.0 101911
03:00+15e22745 0.0 101924
06:00+15ese23755 0.0 101954
09:00+21ese34615 0.0 1019300
12:00+27se464597 0.0 10191518
15:00+28sse573895 0.0 10182437
18:00+28sse573953 0.0 10172277
21:00+22se2465100 0.0 101766
27 july, tue
tue2700:00+19ese387460 0.0 1017148
03:00+18ese3127645 0.0 1017272
06:00+17e3117984 0.0 1016246
09:00+22se51063100 0.0 1015478
12:00+26se6952100 0.0 10141121
15:00+25sse5968100 0.6 10131374
18:00+23s4887100 3.4 1012699
21:00+21sw389341 3.5 1012404
28 july, wed
wed2800:00+19wsw38989 1.3 1012220
03:00+17wsw23975 1.3 101265
06:00+16wsw24975 0.0 101170
09:00+21w23825 0.0 1011286
12:00+26wsw234888 0.0 10101238
15:00+28w2342100 0.0 10082073
18:00+25wnw3751100 0.0 1008416
21:00+21wnw3963100 0.0 1007274